Wind_Speed
28 25 26 23 15 10 7 8 11 13 16 19 22 25 28 29 27 27 30 29 27 30 30 31 29 31 34 39 42 50 56 63 68 78 89 97 98 97 86 86 91 84 91 92 85 89 75
25 24 22 16 10 8 8 10 12 15 17 21 24 25 27 27 27 27 27 25 26 25 24 24 24 24 26 29 29 31 33 39 45 57 63 71 88 67 79 88 84 86 86 84 77 68 77
22 21 18 11 11 9 12 14 20 24 26 28 30 29 30 28 26 24 24 23 22 21 19 17 14 13 13 13 17 22 27 29 34 43 47 60 52 36 52 69 64 75 73 71 57 53 41
19 17 13 14 15 17 18 23 26 29 31 31 29 30 27 25 25 23 19 17 16 14 13 11 8 7 5 4 5 7 9 13 18 22 27 32 40 45 51 40 36 41 47 30 39 22 21
16 13 16 19 22 25 25 27 30 33 32 31 30 26 26 25 25 23 20 18 18 19 16 15 13 12 11 10 12 12 14 18 20 22 24 27 29 32 33 33 32 32 24 20 20 19 17
13 19 21 28 31 30 32 32 35 35 33 31 29 28 28 26 26 27 26 22 19 17 15 12 14 14 14 13 13 15 18 19 19 20 21 24 27 25 22 19 16 16 14 15 18 17 13
18 25 29 35 33 36 38 38 37 35 35 34 33 31 31 30 29 27 24 22 19 16 16 17 16 16 15 12 11 13 15 15 19 24 20 18 16 14 10 10 11 12 14 17 19 19 17
27 36 37 39 38 41 39 38 38 36 36 35 34 32 30 29 29 26 22 17 16 18 19 17 16 13 9 6 5 6 8 10 12 14 14 11 10 10 11 11 8 10 13 17 18 19 20
39 43 42 41 40 39 38 37 35 34 33 33 33 33 31 29 25 23 20 19 20 19 17 15 11 9 6 3 1 3 6 8 11 11 12 10 10 11 12 12 9 10 14 15 17 18 16
46 44 45 43 41 38 37 35 33 33 31 29 29 28 28 23 21 22 22 20 19 15 11 9 8 6 4 3 5 7 9 11 13 14 14 13 12 12 13 15 16 17 18 18 20 20 20
48 48 48 45 42 39 35 33 31 29 31 30 28 27 24 22 22 23 20 18 14 11 10 10 9 9 6 4 6 5 7 9 13 16 18 19 18 17 18 19 21 22 21 23 23 22 24
50 50 50 47 39 38 35 30 25 25 26 28 24 23 21 21 20 22 19 15 11 9 8 7 7 4 3 5 7 10 12 14 16 18 19 21 23 23 22 21 23 22 22 23 24 25 25
53 52 52 46 39 37 34 26 24 21 22 26 27 24 21 20 21 21 18 13 11 9 7 5 5 3 4 8 10 12 13 15 15 16 20 24 25 28 26 25 23 23 24 22 22 23 20
55 53 53 45 41 36 29 25 20 20 23 28 26 23 23 22 22 20 16 12 9 9 7 6 6 5 9 11 11 12 14 14 15 15 17 19 23 24 28 26 26 24 25 23 22 21 21
55 53 52 50 45 40 31 25 20 20 24 29 27 25 25 24 23 19 16 11 10 10 9 8 7 9 10 10 10 10 10 12 14 15 15 16 18 20 21 24 28 28 27 24 23 23 27
57 56 54 49 49 40 32 29 24 21 23 29 28 23 24 24 22 18 17 13 13 11 9 8 7 7 9 9 11 10 9 11 12 13 14 14 15 17 19 22 24 26 26 26 26 26 29
54 58 55 51 51 39 34 33 25 22 28 28 28 23 23 23 21 20 18 16 14 14 12 10 8 9 11 11 9 8 7 9 10 10 12 14 15 13 15 19 21 25 26 27 29 33 34
54 53 55 50 45 40 38 33 28 25 24 27 32 30 24 21 21 22 19 17 16 15 12 9 8 10 11 11 11 11 12 12 10 10 11 11 13 13 13 13 16 21 26 30 30 27 30
57 53 49 50 46 42 43 36 29 27 25 26 27 33 29 25 24 23 20 20 19 16 13 12 13 13 12 13 14 14 15 16 18 19 19 19 20 19 20 21 22 24 27 28 28 29 33
58 56 51 51 51 49 45 39 35 32 30 26 27 32 31 28 27 24 22 22 20 17 17 17 17 17 17 18 18 20 22 22 23 26 28 29 28 29 31 30 30 32 29 28 31 31 32
60 59 53 53 50 48 50 44 39 35 34 30 29 32 32 30 29 27 26 24 21 19 20 20 21 21 22 22 23 24 26 28 30 28 29 30 30 29 28 28 30 33 35 32 33 37 39
64 62 57 54 54 54 49 48 45 39 39 36 33 34 34 33 31 29 27 25 24 24 25 25 26 27 27 28 29 30 32 33 33 33 32 32 29 31 34 31 32 38 37 38 37 41 44
64 63 58 59 57 57 58 53 49 44 45 43 38 36 38 37 35 32 30 29 29 29 29 30 31 31 32 32 32 34 34 35 35 35 36 36 31 29 33 33 38 44 42 44 45 49 50
60 65 63 59 59 58 60 58 53 49 44 45 43 39 40 41 40 38 37 35 34 34 33 33 34 34 34 34 35 37 38 39 40 39 39 39 34 31 35 36 39 47 42 44 49 54 56
52 60 67 68 60 62 64 63 58 58 51 48 48 45 42 45 45 45 43 41 41 41 40 39 38 40 40 39 40 42 42 44 44 43 41 42 39 40 38 37 39 50 49 53 54 58 61
51 54 56 65 69 63 64 65 62 57 53 53 53 51 49 48 48 47 47 46 46 47 46 44 45 46 46 45 45 44 45 46 44 44 45 46 45 45 42 43 46 51 54 58 60 65 69
52 53 52 59 65 66 65 65 64 63 61 59 57 54 54 52 52 50 51 52 52 50 50 49 50 51 51 50 48 47 48 48 47 47 48 50 49 50 48 50 54 59 61 65 71 70 72
57 54 51 52 59 65 64 64 63 59 56 58 60 59 56 55 54 52 53 54 55 54 54 54 54 54 54 54 51 52 49 45 47 49 53 54 51 52 54 61 63 66 67 73 73 74 79
61 57 57 54 53 57 61 64 63 62 60 59 59 58 58 58 57 56 53 53 52 53 55 56 57 58 55 54 54 53 48 47 49 52 58 58 59 58 60 67 70 72 74 73 76 79 86
Wind_Direction
281 289 289 285 277 264 235 202 184 185 187 180 178 177 176 181 186 182 179 183 191 198 203 210 219 224 229 234 236 240 244 244 247 250 253 255 259 262 268 268 272 264 269 271 273 277 276
281 287 282 269 247 210 182 164 162 152 155 160 161 166 173 174 171 170 173 180 187 194 199 204 210 223 230 234 237 239 243 245 249 252 259 261 263 253 257 259 266 265 267 268 271 275 280
280 276 269 226 202 180 149 147 143 138 143 142 138 147 154 157 161 165 165 169 177 187 195 197 206 229 234 237 238 242 245 249 253 255 257 259 257 269 275 273 257 260 273 277 277 273 276
270 269 222 186 179 151 145 146 143 141 134 136 141 145 149 154 158 156 156 164 168 171 166 171 172 183 189 208 223 238 240 247 250 253 254 257 265 269 259 261 259 266 266 282 280 278 279
260 226 188 167 157 150 151 146 138 132 136 143 145 148 148 150 148 145 150 150 154 150 146 147 159 184 208 214 228 236 241 241 241 245 248 249 250 255 255 265 271 272 274 275 274 267 258
233 189 170 158 154 148 138 138 136 141 144 146 147 144 141 140 140 142 146 149 151 159 162 164 183 200 215 226 227 229 233 239 238 237 242 247 250 255 260 264 262 264 264 254 241 242 233
189 164 159 156 159 145 140 142 147 148 145 143 141 141 142 144 148 154 158 153 156 161 173 187 199 199 199 205 218 220 227 233 230 222 231 236 243 248 251 264 269 260 244 239 237 231 235
172 157 152 152 149 139 148 151 146 145 145 144 144 145 147 148 147 146 143 143 163 177 178 178 180 180 181 187 199 224 239 239 233 239 238 240 246 246 242 246 251 267 260 249 242 242 249
168 160 156 153 144 151 153 151 149 150 150 149 151 150 148 148 146 146 151 159 162 165 167 167 161 151 145 165 219 261 263 251 241 255 255 262 267 260 257 258 253 268 265 259 264 258 260
171 166 160 158 157 160 158 157 158 158 156 153 153 156 155 150 155 159 157 155 156 152 154 150 163 181 184 220 264 280 278 275 269 258 247 253 265 271 268 262 264 268 271 270 274 283 288
174 168 164 163 168 164 163 164 164 164 160 160 161 163 161 162 163 164 159 157 157 162 165 175 175 196 213 260 285 277 279 279 275 269 266 258 254 258 259 263 257 256 260 268 273 279 283
180 172 166 167 173 171 168 163 166 168 166 166 164 164 162 161 165 169 168 164 167 182 175 186 203 227 274 295 297 298 303 298 284 273 264 260 257 252 250 255 251 251 255 266 273 278 284
176 175 169 174 177 180 173 173 167 169 170 169 166 165 170 172 170 173 173 175 182 192 198 197 239 263 280 297 303 308 308 315 304 294 275 266 264 255 251 249 252 254 255 259 267 278 283
179 177 172 181 184 190 182 174 175 177 177 173 169 173 174 176 174 176 182 189 197 199 202 220 248 256 287 304 303 306 309 314 307 295 296 284 264 266 261 254 251 255 261 264 272 275 277
182 182 176 186 188 190 186 178 172 176 177 176 173 177 177 180 181 184 190 203 211 208 224 241 258 268 291 296 301 314 314 312 316 313 308 298 283 280 267 254 253 255 266 272 272 278 290
182 183 180 182 187 192 194 182 176 177 182 183 181 184 185 186 190 193 203 218 215 219 228 249 255 270 289 287 292 301 323 338 339 331 324 318 302 285 278 266 262 259 267 273 280 288 294
188 188 184 183 189 200 201 193 188 186 189 187 190 194 193 193 197 205 213 221 222 228 236 246 273 277 277 290 296 310 332 354 2 2 357 351 349 330 308 289 278 270 274 282 284 289 292
188 188 187 188 197 201 207 196 194 192 194 197 200 201 203 201 204 212 216 226 226 227 237 247 261 274 277 290 297 313 326 321 323 327 329 332 333 340 329 320 310 298 294 294 295 296 294
192 186 189 190 200 204 204 199 206 199 199 205 213 210 208 209 211 215 223 232 228 231 236 245 259 274 286 292 290 301 310 312 313 311 312 312 311 309 303 298 293 293 296 296 296 292 295
195 192 189 194 199 205 205 209 207 215 206 211 213 215 213 211 212 217 224 232 232 236 243 251 262 270 276 283 290 297 302 301 303 302 301 302 300 300 301 299 299 296 295 299 294 291 293
198 198 196 194 199 203 208 211 211 219 222 213 217 217 216 213 219 220 225 233 237 242 252 257 264 268 273 278 285 291 294 297 298 300 296 297 302 304 302 304 297 292 297 302 301 298 297
200 200 202 201 201 205 210 212 221 222 226 220 219 222 219 216 223 226 230 234 238 243 250 256 262 268 272 278 281 285 288 292 296 297 298 295 293 299 300 302 300 297 303 307 306 301 302
203 205 207 207 206 208 212 215 219 221 227 230 226 224 223 223 225 229 231 236 242 246 251 257 263 266 271 277 281 284 288 291 295 296 297 293 291 292 294 299 302 298 303 308 308 306 307
206 206 207 208 208 207 213 217 223 224 227 231 233 232 231 229 229 230 235 237 243 250 256 261 266 268 270 275 280 285 290 294 295 294 294 294 287 289 294 298 298 291 301 304 306 303 304
211 207 211 212 212 213 216 219 222 223 229 231 236 235 237 236 236 236 239 245 250 253 258 263 269 270 272 276 282 285 289 293 298 293 290 290 289 292 293 296 296 295 304 305 306 304 307
211 211 210 214 215 213 215 218 221 222 226 230 236 238 240 241 242 242 243 247 252 254 258 264 268 272 275 280 285 290 294 294 293 290 290 289 292 297 297 299 299 298 299 301 306 308 310
212 212 211 212 216 219 219 220 223 226 229 230 233 237 241 244 244 245 246 248 252 258 262 268 270 271 275 282 288 290 294 296 292 291 292 293 295 295 296 298 298 300 302 305 309 310 309
212 216 213 214 216 219 221 223 225 227 229 231 232 236 240 243 246 248 250 252 256 259 263 267 271 274 278 284 287 292 298 296 292 291 292 294 296 296 297 300 302 303 304 307 308 309 309
216 218 219 218 219 220 222 223 226 227 229 231 232 234 239 242 245 250 253 256 259 262 265 269 271 275 279 284 288 293 294 290 291 293 294 293 296 300 301 299 301 303 306 307 307 307 309
Height
10586 10583 10582 10580 10577 10575 10575 10576 10578 10580 10583 10587 10593 10598 10604 10613 10619 10625 10631 10638 10645 10651 10658 10665 10672 10678 10683 10688 10694 10700 10706 10710 10714 10720 10722 10725 10729 10730 10735 10735 10738 10738 10738 10736 10734 10732 10727
10581 10579 10578 10576 10575 10574 10575 10575 10577 10579 10582 10586 10592 10597 10604 10613 10619 10626 10631 10637 10645 10651 10659 10665 10670 10674 10678 10684 10690 10695 10699 10703 10706 10708 10711 10715 10719 10723 10723 10726 10729 10729 10724 10721 10720 10714 10715
10575 10575 10575 10574 10574 10573 10575 10576 10578 10581 10584 10588 10594 10600 10606 10613 10620 10626 10632 10639 10645 10652 10658 10663 10667 10670 10674 10678 10683 10688 10691 10694 10696 10699 10702 10705 10710 10705 10711 10723 10714 10715 10715 10714 10706 10704 10705
10571 10572 10572 10572 10573 10574 10577 10579 10582 10584 10588 10593 10599 10604 10610 10615 10621 10627 10633 10639 10645 10651 10657 10661 10665 10669 10672 10676 10680 10684 10686 10689 10690 10691 10694 10696 10700 10703 10709 10706 10700 10698 10705 10701 10704 10700 10698
10568 10569 10570 10571 10573 10576 10579 10581 10584 10588 10592 10597 10602 10608 10612 10618 10624 10630 10636 10642 10647 10652 10657 10661 10665 10668 10670 10674 10677 10679 10682 10683 10685 10687 10690 10693 10696 10698 10699 10699 10697 10698 10697 10694 10693 10695 10695
10565 10566 10569 10572 10575 10578 10581 10584 10588 10592 10596 10600 10605 10610 10616 10621 10627 10632 10637 10643 10647 10652 10657 10661 10665 10668 10670 10671 10674 10677 10680 10683 10685 10687 10690 10692 10692 10692 10693 10693 10693 10692 10691 10690 10691 10692 10694
10563 10565 10569 10573 10577 10579 10584 10589 10592 10595 10598 10603 10607 10613 10619 10624 10629 10634 10640 10645 10650 10654 10657 10661 10665 10667 10669 10671 10674 10677 10680 10682 10684 10685 10686 10687 10686 10687 10687 10688 10688 10688 10689 10689 10689 10691 10693
10562 10566 10570 10575 10578 10581 10588 10592 10594 10598 10601 10605 10611 10617 10622 10627 10631 10637 10642 10646 10650 10654 10658 10661 10664 10666 10668 10670 10673 10674 10677 10678 10680 10680 10681 10682 10682 10683 10684 10684 10685 10685 10686 10687 10688 10690 10691
10561 10565 10570 10576 10579 10585 10591 10594 10598 10601 10605 10609 10614 10620 10625 10629 10634 10639 10643 10647 10650 10654 10658 10661 10663 10665 10667 10669 10671 10672 10673 10674 10676 10676 10676 10677 10678 10680 10681 10681 10681 10682 10683 10683 10684 10685 10687
10560 10564 10569 10575 10581 10587 10592 10596 10600 10604 10608 10612 10618 10622 10627 10631 10635 10639 10643 10647 10650 10654 10657 10660 10662 10664 10666 10668 10669 10670 10670 10671 10671 10672 10673 10674 10674 10675 10675 10676 10678 10679 10680 10680 10680 10679 10681
10558 10563 10568 10575 10582 10587 10593 10597 10602 10606 10609 10614 10619 10624 10627 10631 10635 10639 10643 10647 10650 10654 10657 10659 10661 10663 10665 10667 10667 10668 10667 10667 10667 10667 10667 10668 10670 10670 10670 10671 10673 10675 10676 10676 10675 10675 10675
10555 10561 10566 10574 10581 10587 10593 10598 10603 10607 10611 10614 10619 10623 10626 10630 10635 10639 10643 10646 10650 10653 10655 10657 10659 10661 10663 10663 10664 10664 10665 10664 10663 10663 10662 10662 10663 10664 10665 10666 10667 10670 10670 10671 10670 10670 10669
10552 10558 10564 10572 10581 10587 10592 10598 10603 10607 10610 10613 10617 10622 10626 10630 10634 10638 10642 10646 10649 10651 10653 10655 10657 10659 10660 10660 10661 10661 10661 10659 10658 10658 10658 10658 10658 10658 10659 10660 10661 10664 10665 10665 10665 10664 10663
10549 10556 10561 10569 10578 10584 10591 10596 10602 10606 10609 10612 10617 10621 10625 10630 10634 10637 10641 10645 10647 10649 10652 10653 10654 10656 10656 10658 10658 10657 10657 10655 10654 10653 10652 10651 10651 10652 10653 10654 10656 10657 10658 10659 10658 10658 10656
10544 10553 10559 10567 10574 10582 10588 10594 10599 10604 10607 10612 10616 10621 10625 10629 10633 10637 10640 10643 10645 10647 10649 10650 10652 10654 10655 10655 10655 10655 10654 10652 10651 10650 10648 10646 10646 10646 10647 10648 10650 10651 10651 10652 10652 10651 10649
10541 10549 10556 10563 10571 10580 10586 10592 10597 10602 10607 10612 10616 10620 10624 10628 10632 10636 10639 10641 10643 10645 10647 10649 10650 10652 10652 10652 10653 10653 10652 10650 10649 10648 10646 10644 10643 10642 10642 10643 10644 10645 10645 10646 10646 10646 10644
10536 10544 10551 10559 10569 10576 10583 10590 10595 10600 10605 10610 10615 10619 10623 10627 10630 10634 10636 10639 10641 10643 10645 10647 10648 10649 10649 10650 10650 10650 10649 10649 10648 10647 10645 10643 10642 10641 10638 10638 10639 10639 10640 10640 10640 10638 10637
10531 10540 10548 10556 10566 10573 10580 10586 10592 10598 10602 10608 10613 10616 10621 10624 10628 10631 10633 10636 10638 10640 10642 10644 10646 10646 10646 10647 10647 10647 10647 10646 10645 10644 10643 10642 10641 10640 10637 10636 10635 10634 10634 10634 10633 10630 10626
10526 10534 10543 10551 10560 10569 10576 10582 10589 10595 10600 10605 10609 10613 10617 10621 10625 10628 10630 10633 10635 10638 10639 10641 10642 10643 10644 10644 10644 10644 10643 10642 10642 10640 10639 10639 10637 10636 10635 10633 10631 10630 10629 10628 10626 10624 10619
10519 10529 10536 10546 10555 10564 10572 10578 10584 10591 10595 10600 10605 10609 10613 10618 10621 10624 10627 10629 10632 10634 10636 10637 10639 10640 10640 10640 10640 10640 10639 10639 10638 10636 10635 10633 10633 10630 10628 10626 10622 10619 10619 10619 10617 10614 10613
10514 10523 10530 10538 10548 10558 10566 10573 10579 10585 10591 10595 10600 10605 10609 10614 10617 10620 10622 10625 10628 10630 10632 10634 10634 10635 10635 10635 10635 10635 10634 10633 10632 10631 10629 10627 10626 10623 10621 10619 10615 10609 10610 10610 10608 10605 10602
10507 10516 10525 10534 10542 10551 10559 10567 10574 10580 10585 10590 10595 10601 10605 10609 10612 10615 10618 10621 10623 10625 10627 10628 10629 10629 10629 10629 10629 10629 10629 10627 10625 10624 10622 10621 10620 10617 10611 10611 10608 10600 10601 10601 10598 10592 10588
10501 10509 10518 10527 10536 10543 10552 10560 10567 10574 10580 10585 10590 10595 10599 10603 10606 10610 10613 10615 10617 10619 10620 10622 10622 10623 10622 10623 10623 10622 10621 10620 10618 10616 10614 10612 10612 10611 10606 10603 10598 10590 10590 10589 10584 10578 10574
10493 10502 10511 10520 10528 10536 10545 10553 10561 10568 10573 10579 10584 10589 10593 10596 10599 10603 10606 10608 10610 10611 10613 10615 10616 10617 10616 10615 10615 10614 10612 10611 10609 10607 10605 10602 10602 10601 10599 10596 10592 10577 10583 10579 10574 10563 10558
10485 10493 10502 10512 10521 10529 10537 10545 10553 10560 10566 10572 10577 10582 10586 10589 10591 10595 10598 10601 10603 10605 10606 10606 10608 10608 10608 10607 10606 10605 10604 10601 10598 10594 10592 10591 10589 10590 10588 10588 10583 10568 10570 10566 10562 10553 10543
10477 10485 10494 10503 10512 10520 10528 10536 10543 10550 10557 10563 10568 10574 10578 10581 10584 10587 10590 10593 10594 10596 10597 10598 10599 10599 10599 10598 10597 10596 10593 10590 10586 10583 10580 10580 10579 10577 10577 10574 10570 10562 10559 10553 10549 10541 10531
10470 10477 10485 10493 10502 10511 10519 10526 10533 10540 10547 10553 10558 10564 10568 10572 10575 10577 10580 10582 10584 10587 10587 10589 10589 10588 10589 10588 10588 10586 10583 10579 10574 10571 10570 10567 10568 10564 10563 10560 10555 10550 10544 10537 10531 10526 10516
10462 10470 10476 10485 10493 10502 10509 10516 10523 10529 10536 10542 10548 10553 10558 10561 10564 10568 10571 10573 10576 10577 10578 10578 10578 10577 10578 10577 10577 10575 10572 10568 10564 10560 10556 10553 10557 10554 10551 10542 10537 10532 10528 10520 10513 10506 10496
10453 10461 10469 10477 10485 10493 10500 10507 10514 10520 10526 10532 10537 10543 10547 10551 10554 10557 10560 10562 10565 10567 10567 10567 10566 10566 10566 10565 10564 10563 10561 10556 10554 10552 10543 10539 10537 10541 10538 10524 10519 10515 10510 10503 10493 10486 10475